This is the latest recevied weather packets stored in our database for station/object KD0SBN-3. If no packets are shown the sender has not sent any weather packets the latest 10 day(s).
| Time | Temp. | Humidity | Pressure | Rain* | Wind** | Luminosity | Snow |
|---|---|---|---|---|---|---|---|
| 1777928369 | 16.67° C | 27% | 1020.3 hPa | 0 mm | - | 485 W/m² | - |
| 1777928067 | 16.67° C | 28% | 1020.3 hPa | 0 mm | - | 620 W/m² | - |
| 1777927765 | 15.56° C | 28% | 1020.7 hPa | 0 mm | - | 678 W/m² | - |
| 1777927463 | 16.11° C | 27% | 1020.7 hPa | 0 mm | - | 423 W/m² | - |
| 1777927162 | 15.56° C | 28% | 1020.8 hPa | 0 mm | - | 586 W/m² | - |
| 1777926859 | 15.56° C | 29% | 1020.4 hPa | 0 mm | - | 572 W/m² | - |
| 1777926555 | 15° C | 30% | 1020.7 hPa | 0 mm | - | 356 W/m² | - |
| 1777926252 | 15.56° C | 28% | 1020.7 hPa | 0 mm | - | 381 W/m² | - |
| 1777925949 | 15° C | 27% | 1020.6 hPa | 0 mm | - | 450 W/m² | - |
| 1777925646 | 15° C | 27% | 1020.9 hPa | 0 mm | - | 441 W/m² | - |
| 1777925343 | 15° C | 28% | 1020.9 hPa | 0 mm | - | 469 W/m² | - |
| 1777925040 | 15° C | 26% | 1020.9 hPa | 0 mm | - | 555 W/m² | - |
| 1777924736 | 15° C | 28% | 1020.6 hPa | 0 mm | - | 533 W/m² | - |
| 1777924432 | 15° C | 27% | 1021.1 hPa | 0 mm | - | 548 W/m² | - |
| 1777924129 | 13.89° C | 28% | 1020.7 hPa | 0 mm | - | 511 W/m² | - |
| 1777923825 | 15° C | 27% | 1021.1 hPa | 0 mm | - | 453 W/m² | - |
| 1777923521 | 15° C | 27% | 1021.2 hPa | 0 mm | - | 568 W/m² | - |
| 1777923219 | 15° C | 27% | 1021.2 hPa | 0 mm | - | 519 W/m² | - |
| 1777922917 | 14.44° C | 28% | 1021.1 hPa | 0 mm | - | 537 W/m² | - |
| 1777922615 | 15° C | 29% | 1021.3 hPa | 0 mm | - | 538 W/m² | - |
| 1777922313 | 15° C | 30% | 1021.3 hPa | 0 mm | - | 572 W/m² | - |
| 1777922010 | 15° C | 29% | 1021.2 hPa | 0 mm | - | 582 W/m² | - |
| 1777921705 | 15° C | 29% | 1021.2 hPa | 0 mm | - | 475 W/m² | - |
| 1777921402 | 13.89° C | 31% | 1021.5 hPa | 0 mm | - | 523 W/m² | - |
| 1777921099 | 13.89° C | 31% | 1021.5 hPa | 0 mm | - | 578 W/m² | - |
* Rain latest hour (hover to see other rain measurements)
** Current wind speed in m/s (hover to see current wind gust speed)